Theta_e
314 313 313 313 313 314 315 316 316 314 313 314 313 312 312 311 310 310 309 309 309 309 307 306 306 306 306 307 306 306 305 305 305 304 305 304 305 305 304 304 304 302 304 302 303 301 301 300 300 300 299 298 298 299 300 299 299 300 301 299 298 298 298 296 295 296 296 297 298 299 300 300 299 299 299 299 300 301 303 301 302 302 302 302 303
314 312 311 312 313 314 315 316 316 315 313 313 313 313 312 312 311 310 309 310 311 310 308 307 307 307 306 306 306 306 307 306 305 305 305 305 304 305 305 304 303 302 303 302 302 303 301 300 299 299 300 298 298 298 299 299 298 298 299 299 298 299 299 298 295 295 294 295 297 297 297 299 297 298 298 298 298 300 299 300 300 301 302 302 302
313 313 313 313 314 315 315 316 315 315 313 312 312 312 312 312 312 311 310 309 311 311 309 309 309 307 307 307 306 306 306 306 304 305 304 304 304 303 305 304 303 302 302 302 302 302 300 301 300 300 301 297 298 299 299 299 298 298 298 298 298 297 298 297 295 293 293 293 295 294 296 295 295 296 297 298 298 299 298 298 299 301 302 301 301
313 314 314 313 313 313 314 315 316 315 314 313 313 313 315 314 314 312 310 309 310 310 309 309 308 307 307 307 307 307 307 307 306 305 306 305 305 305 303 303 303 303 303 302 302 302 301 300 299 300 300 297 297 298 298 298 298 298 297 297 297 297 297 296 296 294 294 291 291 294 295 293 293 294 297 297 297 297 298 298 298 299 299 301 300
313 314 314 313 313 313 314 314 315 315 314 314 313 313 314 314 315 314 312 312 313 313 311 310 309 308 309 308 308 307 307 307 307 306 305 305 305 305 304 303 303 303 303 303 304 302 302 301 299 301 299 297 297 298 298 297 297 296 295 295 295 296 297 295 294 293 291 289 290 292 293 292 294 294 296 295 295 296 296 297 297 298 298 299 300
313 312 312 311 311 311 313 314 314 315 314 313 313 314 315 314 313 312 313 313 313 313 312 312 312 311 310 309 309 309 308 308 308 307 306 306 307 305 305 304 303 303 303 303 303 302 302 301 299 301 300 299 299 298 297 296 294 294 293 293 294 294 293 293 293 291 290 290 290 290 291 292 292 292 294 295 294 295 295 295 295 296 297 297 298
309 308 307 307 309 309 313 313 314 313 313 313 314 315 315 315 315 313 314 314 314 314 313 313 313 312 312 311 310 310 310 309 308 306 307 306 306 305 304 304 304 303 303 304 303 302 302 301 300 301 300 299 299 299 298 295 296 293 295 293 292 292 292 291 290 290 290 290 289 289 290 292 292 291 293 293 293 294 293 293 293 295 295 295 295
309 308 309 308 308 309 311 312 312 313 314 314 314 314 314 314 314 313 314 315 314 314 315 314 314 315 315 313 313 312 311 310 308 308 308 307 306 305 305 304 304 303 303 302 302 303 302 302 301 301 301 300 300 299 298 295 294 293 293 293 292 291 291 291 290 289 289 289 288 288 289 289 290 291 293 292 292 292 294 293 291 292 293 294 294
308 309 309 309 309 311 312 313 314 314 314 314 314 314 314 314 314 313 313 314 315 315 315 316 315 315 314 314 313 311 310 310 311 310 309 308 307 307 307 307 306 305 304 303 302 302 302 301 301 301 304 305 302 301 299 298 294 292 292 293 291 290 290 290 290 289 289 289 289 289 288 288 288 289 290 290 289 289 292 292 291 292 292 293 293
309 309 310 309 310 312 314 314 315 315 314 314 314 315 315 315 314 314 314 315 314 315 315 315 315 314 314 312 310 309 309 309 309 306 305 307 307 308 308 306 306 305 305 304 303 302 302 302 303 306 305 304 301 298 296 297 298 295 292 292 292 290 289 288 289 289 290 289 288 288 288 287 287 288 288 289 290 291 290 290 290 291 291 291 292
306 305 307 309 310 311 312 313 314 314 314 314 313 314 314 314 313 313 312 312 313 313 314 313 312 312 311 309 308 309 308 307 295 299 301 300 303 305 307 307 306 306 305 304 303 303 302 301 300 304 304 304 301 296 295 294 294 294 295 295 295 291 289 289 288 288 291 289 288 288 287 287 288 288 288 289 289 289 289 289 290 290 288 288 287
303 304 306 305 307 309 310 310 311 312 312 311 312 312 312 313 313 313 311 311 312 312 311 311 311 310 310 308 306 305 305 296 293 296 296 297 300 305 306 307 307 306 306 305 304 303 302 299 300 303 302 301 298 295 295 294 293 293 292 293 293 294 294 292 291 289 288 288 287 288 287 287 287 287 288 288 289 289 289 288 288 288 288 287 286
299 303 304 304 304 305 306 309 308 308 308 309 312 311 311 310 311 311 311 311 311 310 311 310 310 309 309 307 306 301 299 296 292 293 294 294 295 298 304 307 308 307 306 305 304 302 300 300 300 300 299 303 299 294 295 294 293 293 293 293 293 292 291 292 294 294 289 288 288 287 287 287 287 288 291 289 289 288 288 288 288 287 287 286 287
294 295 297 299 300 301 304 305 305 305 305 305 308 309 308 309 308 310 310 310 310 310 310 309 309 308 308 304 298 294 294 295 293 295 295 295 295 296 300 302 303 304 304 304 302 301 301 299 298 297 297 298 296 296 295 294 294 293 292 292 292 293 291 291 290 291 292 291 288 288 288 290 290 289 291 290 289 289 287 287 287 287 287 287 288
295 295 294 296 298 299 300 300 302 301 300 300 301 303 304 300 302 302 304 306 307 308 307 306 306 305 302 297 294 292 294 293 293 293 293 293 295 296 296 298 297 296 297 299 299 299 298 299 297 297 297 297 297 295 295 294 293 293 291 291 291 290 290 290 290 290 291 290 289 289 289 289 289 289 289 289 289 289 289 288 288 288 288 288 287
295 294 295 295 296 297 298 297 297 296 297 297 298 298 297 299 299 298 298 297 297 298 298 300 300 297 295 293 293 292 292 293 293 293 293 293 295 297 296 296 295 296 296 297 297 298 298 299 299 298 297 297 297 293 295 295 292 292 292 292 291 292 292 293 293 293 293 290 289 289 289 290 293 290 290 289 288 288 289 288 286 286 285 284 284
295 295 295 295 296 296 297 297 296 296 296 296 296 297 296 294 294 294 295 294 296 296 296 295 298 296 293 291 292 291 292 292 292 292 292 293 294 295 294 295 295 295 295 296 296 296 296 297 297 296 294 293 292 293 293 294 294 293 292 291 292 291 291 292 291 291 291 291 291 291 290 290 290 290 290 290 289 289 287 284 284 283 283 283 284
296 296 296 296 296 295 296 296 297 295 295 295 296 294 294 294 294 294 296 295 296 295 294 296 294 294 294 291 292 293 291 292 293 292 293 293 295 294 293 294 292 293 292 291 291 292 297 303 298 293 292 291 290 291 292 294 293 292 292 291 290 289 289 290 291 291 291 291 290 290 290 289 290 290 290 291 290 291 286 284 285 283 283 283 283
296 295 295 296 296 295 296 296 296 296 296 296 295 295 295 295 294 293 295 295 294 293 296 296 293 291 291 291 297 291 289 292 292 292 292 293 294 292 292 291 291 289 290 290 289 289 290 294 296 293 292 291 289 290 290 292 291 291 291 290 289 288 289 289 288 286 285 285 284 286 286 289 288 287 289 290 290 292 287 286 285 284 283 283 284
297 297 297 296 295 295 296 298 298 297 297 296 296 297 296 295 293 294 292 294 294 294 293 294 292 290 289 288 289 288 289 289 290 292 292 292 293 293 291 291 290 288 290 291 289 288 289 289 291 289 289 289 289 289 290 290 291 291 290 289 288 289 289 288 289 286 284 284 283 284 285 285 285 285 285 285 288 290 289 287 286 286 285 284 284
300 299 298 297 296 296 296 296 297 297 297 297 296 297 296 296 294 294 294 293 293 292 292 292 291 288 287 287 287 288 289 288 289 291 291 292 292 291 288 289 289 289 289 288 288 288 288 288 288 290 289 289 289 289 289 290 290 291 289 288 288 289 287 284 286 290 284 285 285 284 285 285 284 284 284 284 286 287 288 287 287 286 286 285 284
298 297 297 297 296 296 296 297 298 299 297 297 297 297 295 295 295 293 293 292 292 291 289 290 289 288 286 287 286 286 291 292 288 291 290 291 290 291 290 289 289 290 288 287 286 287 286 286 287 289 288 288 288 288 289 289 290 291 289 288 287 287 287 288 285 285 283 283 282 283 283 282 283 284 285 285 286 288 287 287 287 287 287 287 286
296 297 296 297 297 298 298 298 298 300 298 297 296 295 294 296 295 294 293 292 292 290 289 289 288 287 285 285 285 285 286 289 291 289 290 290 290 290 290 290 290 290 288 287 286 286 286 286 288 289 288 288 288 288 288 288 289 288 287 287 287 287 288 286 285 283 282 282 283 283 282 282 283 283 284 284 285 286 286 287 287 287 288 289 289
295 295 295 296 298 298 298 298 297 296 295 295 294 293 293 294 295 294 292 292 291 289 287 288 288 287 286 285 285 285 284 285 289 290 289 289 289 289 289 289 290 290 290 287 287 286 286 287 289 288 288 288 288 288 287 288 286 287 287 287 287 288 286 284 283 283 283 282 282 281 282 282 282 283 284 285 286 286 287 287 287 287 287 287 288
294 294 295 296 296 298 299 299 300 300 296 293 293 291 290 291 291 290 291 290 290 289 287 289 290 289 287 286 284 283 284 283 285 288 289 289 289 289 288 289 289 289 289 289 288 288 289 289 288 288 288 288 288 288 288 288 287 287 287 287 290 283 283 282 283 282 281 282 282 282 282 283 284 285 285 285 286 286 286 286 287 287 287 288 288
293 293 294 294 294 295 296 297 298 298 298 295 294 293 293 291 292 290 289 289 289 288 288 286 286 287 286 284 283 283 283 283 284 285 289 289 288 288 288 289 289 289 289 288 288 288 288 288 288 288 288 288 286 285 285 285 288 287 288 288 282 282 282 282 281 282 281 281 282 283 283 283 283 284 285 285 284 284 285 285 285 285 286 286 286
292 292 292 292 293 292 293 294 293 294 294 293 293 293 291 291 292 291 291 290 288 286 287 287 286 285 285 284 283 284 283 283 284 284 284 284 285 287 287 287 288 288 287 287 288 287 287 288 287 287 287 287 286 286 286 286 284 284 282 282 282 281 282 282 282 282 282 282 282 282 283 283 284 283 283 283 284 284 285 286 285 285 285 285 285
291 291 292 291 291 292 293 291 293 293 291 291 291 290 289 291 291 291 290 289 288 286 287 286 287 287 285 284 285 284 284 284 284 284 283 284 285 284 285 285 283 283 284 283 285 287 285 286 285 284 284 283 282 281 281 282 282 283 282 282 281 282 284 287 287 282 282 282 282 282 282 282 282 283 283 284 284 285 285 285 285 285 285 285 284
291 291 291 290 290 290 291 293 294 293 289 286 284 284 286 288 289 290 289 290 293 291 289 289 289 289 288 287 285 284 283 284 285 286 286 287 286 285 284 283 283 283 286 287 285 284 283 283 282 282 280 279 278 279 279 279 279 280 281 282 282 282 282 281 283 282 282 281 281 282 282 282 282 283 284 285 285 286 286 285 286 285 286 286 284
290 290 291 290 292 290 290 289 289 288 288 287 286 286 285 287 286 287 287 292 292 291 291 290 290 289 288 286 287 286 286 284 287 287 287 287 287 287 286 286 286 286 286 286 285 281 280 279 277 277 276 277 277 277 277 277 278 279 279 282 279 280 281 281 281 281 282 282 282 282 282 283 283 284 284 284 285 286 286 286 286 286 285 285 284
289 290 290 290 291 292 291 290 288 287 286 285 286 286 284 286 287 287 288 289 290 291 290 290 290 289 290 286 284 287 287 287 287 288 288 287 287 287 287 287 287 287 286 285 282 280 281 280 276 276 275 277 277 276 276 277 278 277 278 278 279 281 281 281 281 281 281 282 283 283 284 284 284 284 284 284 284 285 285 286 286 286 285 285 284
289 289 290 290 291 290 291 291 289 288 287 286 287 287 285 285 285 287 287 287 289 290 290 289 289 289 289 288 285 284 287 287 287 287 287 287 287 287 287 287 286 286 286 286 283 281 281 280 277 276 276 278 277 277 277 278 278 277 278 278 279 279 280 281 281 281 281 282 283 283 284 284 284 284 284 284 285 284 285 285 285 285 285 285 285
288 288 289 289 290 290 290 290 290 289 287 286 286 286 286 286 285 284 286 287 287 287 288 288 288 288 288 287 287 286 286 287 287 287 287 287 287 287 287 287 286 286 286 286 284 280 277 278 277 277 276 276 278 278 279 280 279 278 278 278 280 281 281 281 280 281 280 282 283 284 284 284 284 284 284 284 284 284 284 284 284 284 284 284 284
289 289 288 289 289 290 291 290 290 290 290 289 288 287 287 288 288 286 285 283 286 286 287 287 288 288 287 287 287 287 287 287 287 287 287 287 287 286 286 286 286 286 286 283 281 277 276 278 279 279 279 278 279 278 278 278 279 279 280 280 281 281 281 281 281 281 282 283 283 283 284 284 285 284 284 284 284 284 284 284 284 284 284 284 284
288 287 287 287 289 289 290 290 290 289 288 288 288 288 288 286 285 286 286 286 284 282 281 282 285 287 286 286 287 287 287 287 287 287 287 287 286 286 286 286 285 284 283 282 281 280 278 278 279 279 279 279 279 278 278 280 279 280 280 281 281 281 281 282 282 283 283 283 283 284 284 284 285 284 284 284 284 283 283 284 284 284 283 284 284
287 287 288 288 288 288 288 288 289 289 289 289 289 289 287 285 285 284 284 284 283 282 280 280 281 285 286 286 287 287 287 287 287 287 286 286 286 286 285 283 283 281 280 280 280 279 280 279 279 280 280 281 280 278 279 279 280 281 280 281 281 282 283 283 283 283 283 284 284 284 285 284 285 284 284 284 284 284 284 284 284 284 284 284 284
287 287 287 287 288 288 288 288 288 289 288 289 288 287 285 285 284 284 284 283 283 282 282 282 282 283 284 285 286 287 287 287 286 286 286 285 286 286 285 284 282 281 280 280 279 279 279 279 279 280 281 281 280 280 280 281 281 281 283 282 282 282 283 283 284 284 284 284 284 284 284 284 284 285 284 283 284 284 284 284 284 284 284 284 284
290 289 289 288 288 288 288 288 288 287 287 287 287 286 285 284 284 284 283 283 283 282 281 282 283 282 282 282 287 286 285 286 286 286 286 285 285 284 283 282 282 282 279 279 279 279 279 279 279 280 280 281 281 280 280 280 281 281 282 282 282 282 285 285 285 285 284 284 284 284 284 284 285 285 284 284 283 283 284 284 284 283 284 284 284
291 289 288 287 287 289 288 287 287 287 286 285 285 285 285 284 284 283 283 283 283 282 282 282 282 282 283 284 284 286 286 285 285 284 284 283 283 283 282 281 281 280 280 279 279 278 278 279 278 279 279 280 280 280 280 281 281 281 281 281 282 283 283 284 284 284 284 284 284 284 284 284 285 285 284 284 284 284 284 284 284 284 283 283 284
291 291 289 287 288 288 288 287 287 287 286 285 285 285 285 284 284 283 283 283 282 282 283 283 283 284 284 285 285 286 286 285 284 284 284 283 281 280 281 280 280 280 278 277 278 278 278 278 277 278 279 279 279 280 280 280 280 280 280 280 281 283 283 284 284 284 284 284 284 284 284 284 284 285 284 284 284 284 284 284 284 284 284 284 284
293 292 289 288 289 289 288 287 286 286 286 286 285 285 284 283 284 284 283 283 283 283 283 284 285 285 286 286 286 287 287 286 285 284 284 282 281 281 280 278 277 278 277 276 277 276 276 277 275 274 274 275 277 278 279 279 280 280 280 281 281 282 283 283 283 284 284 283 284 284 284 284 284 284 284 284 285 285 285 285 285 285 285 285 285
292 291 290 289 289 289 288 286 286 286 286 285 285 285 284 283 283 284 284 284 284 285 285 285 286 285 285 286 286 286 286 284 284 283 283 282 282 280 279 278 279 278 276 276 276 276 276 275 274 273 274 276 277 278 279 279 279 280 280 280 281 281 282 282 283 283 283 283 283 284 284 284 284 284 285 285 285 285 285 285 285 285 285 285 285
290 291 290 289 290 288 287 287 287 286 285 285 284 285 285 284 285 284 284 285 285 286 286 285 285 285 285 285 285 285 285 284 283 283 282 281 281 279 279 276 275 276 277 276 275 274 274 275 274 274 275 277 277 278 278 279 279 279 279 279 280 280 280 281 282 282 283 283 283 283 283 284 284 285 285 285 285 285 285 285 285 285 285 285 285
290 289 289 289 288 287 287 287 286 286 285 285 285 285 285 285 285 285 285 285 286 286 286 285 285 285 284 284 285 285 284 283 282 281 281 281 281 278 275 275 276 276 275 274 273 274 273 274 274 276 277 277 278 278 278 278 278 277 278 278 279 280 280 280 281 281 282 282 282 283 283 284 284 285 285 285 285 285 285 285 285 285 285 285 285
291 290 290 290 290 289 288 287 287 286 286 286 286 285 285 286 286 286 286 286 286 286 286 285 285 285 284 284 284 284 283 282 281 281 281 281 279 276 274 273 273 274 273 274 275 276 275 275 275 276 277 278 278 279 279 278 277 277 277 277 277 278 278 279 281 282 282 282 282 283 283 284 284 285 285 285 285 285 285 285 285 285 285 285 285
290 290 289 289 289 289 288 288 287 288 288 288 287 287 287 287 287 286 286 286 286 285 285 285 285 285 284 284 284 283 282 281 281 281 279 278 277 275 274 273 273 273 274 275 275 276 276 276 276 276 276 277 277 278 278 278 278 278 278 276 277 278 279 280 281 281 281 282 282 283 283 284 284 285 285 285 285 285 285 285 285 285 285 285 285
290 289 289 289 289 288 288 288 289 288 288 288 287 287 287 286 286 286 285 285 285 285 284 284 284 284 284 284 283 282 281 281 280 280 279 279 277 276 274 274 273 273 273 274 275 275 276 276 276 275 276 276 276 277 277 278 277 278 278 278 278 278 279 279 279 279 280 282 283 283 283 284 285 285 285 285 285 285 285 285 285 285 285 285 285
289 288 289 289 289 288 288 288 287 286 287 287 286 286 286 285 285 285 284 284 284 284 284 284 283 283 283 281 281 281 280 280 280 279 279 279 277 275 274 274 274 273 274 274 275 276 276 275 275 275 276 276 276 276 276 277 278 279 279 279 279 279 279 279 279 279 281 282 282 283 284 284 285 285 285 285 285 285 284 285 285 285 285 285 285
287 287 287 287 287 287 286 286 286 286 286 286 285 285 285 284 284 283 283 283 283 283 283 282 282 281 281 280 281 280 280 280 280 279 279 278 277 276 275 276 277 275 275 274 275 276 275 275 275 276 274 274 275 276 277 278 278 279 279 279 278 278 278 278 278 279 280 281 282 283 284 284 284 284 285 285 285 285 285 285 285 285 285 285 285
286 286 286 285 285 285 285 284 284 284 284 284 284 283 283 283 283 282 282 282 281 281 281 281 280 280 280 280 280 280 280 280 279 279 278 277 277 277 277 277 276 276 274 274 274 274 274 274 274 275 276 275 277 278 278 278 279 279 278 278 278 278 278 278 278 279 279 280 281 282 283 284 284 284 284 284 285 285 285 284 285 285 285 285 285
284 284 284 284 284 284 283 283 283 283 283 283 283 282 282 281 281 281 280 280 280 280 280 280 280 280 279 280 280 280 279 279 279 279 278 277 277 278 281 280 279 276 275 275 274 274 274 274 275 276 277 278 279 279 279 279 279 279 279 278 278 277 277 277 278 278 279 279 281 282 283 284 283 283 284 284 285 285 284 284 285 285 285 285 285
Wind_Speed
15 13 12 14 15 13 13 10 8 7 7 9 9 8 8 8 7 6 4 5 4 4 4 4 4 4 4 4 5 4 5 5 4 5 5 5 5 6 5 5 6 5 6 5 3 5 5 5 4 2 2 3 3 3 4 3 4 4 3 5 5 2 3 2 2 4 3 1 1 3 5 4 5 5 7 6 7 7 8 7 8 8 9 9 9
12 11 11 13 14 11 9 9 8 6 6 8 8 7 7 9 7 6 6 6 6 6 5 4 4 4 4 4 4 4 5 5 5 5 5 6 5 5 7 6 5 5 5 6 5 4 5 5 4 4 3 3 3 3 3 4 4 5 5 5 5 5 2 4 2 1 5 3 4 3 4 5 5 6 7 8 7 5 7 7 6 6 7 8 9
9 9 11 11 12 11 10 8 5 3 4 4 5 1 2 3 7 9 8 6 5 6 6 5 4 4 4 4 4 4 4 4 4 4 4 4 4 4 4 5 6 6 5 5 6 4 4 5 5 4 3 3 3 2 2 5 4 6 4 4 5 3 3 3 3 4 4 4 2 5 6 5 5 7 7 6 5 4 6 7 6 6 7 7 7
7 8 10 11 10 6 5 4 11 8 3 6 5 5 6 3 1 1 2 3 2 3 3 1 2 4 5 4 5 5 5 5 5 5 6 6 5 6 4 4 4 5 6 6 5 5 6 5 4 4 4 4 3 3 3 4 5 5 5 3 4 3 2 3 3 2 1 4 3 4 5 6 4 4 6 5 6 6 5 5 5 7 6 7 7
6 8 10 11 6 4 5 9 11 12 9 7 6 7 6 3 5 6 4 4 4 5 3 0 3 4 6 7 6 6 6 6 6 5 4 4 5 5 5 5 4 4 5 6 7 7 6 6 6 4 4 5 3 3 3 4 4 5 5 3 4 3 3 3 3 3 4 5 4 2 3 2 2 3 7 8 7 5 4 6 6 7 7 5 6
6 6 4 3 0 2 5 8 10 12 11 9 9 10 9 7 6 5 7 7 6 6 7 6 5 7 7 7 6 7 6 6 6 5 4 3 3 3 4 5 5 5 5 4 5 6 7 7 5 6 6 6 5 4 4 5 4 4 4 3 4 3 4 3 3 4 4 2 2 4 4 6 4 3 6 7 7 8 9 6 4 6 9 10 8
3 2 1 1 2 3 6 6 7 7 7 8 8 8 10 10 9 7 6 6 6 5 6 5 3 4 10 11 8 6 5 4 4 4 4 4 4 4 4 4 4 4 4 4 5 5 6 6 6 6 7 6 6 7 5 4 4 4 4 4 3 4 4 3 3 5 4 4 2 2 3 2 4 7 6 4 3 4 9 11 11 7 6 7 9
6 5 5 6 6 7 6 6 7 5 4 6 8 6 4 6 8 6 7 9 5 3 4 2 2 3 9 11 10 4 3 4 3 4 4 4 3 4 4 4 4 4 4 4 4 5 6 7 7 8 8 8 7 6 7 7 4 5 4 4 4 4 4 3 5 5 5 4 3 3 2 2 4 1 3 5 7 5 7 6 9 11 10 6 5
6 6 6 7 6 7 9 8 7 7 6 8 9 9 8 8 7 7 6 3 6 6 6 6 5 9 12 11 8 5 3 2 1 1 1 1 2 4 5 5 6 6 5 5 5 6 5 5 6 7 8 10 11 10 9 9 7 6 4 3 4 5 4 4 3 4 3 4 4 2 4 5 4 6 8 7 7 5 6 5 5 6 8 9 6
4 4 7 5 5 5 9 10 10 10 10 7 7 7 9 9 9 8 8 10 7 8 9 8 10 11 10 9 5 4 2 0 2 3 3 1 2 4 4 4 4 5 5 6 6 6 7 6 6 11 12 11 12 12 12 11 9 8 7 5 5 5 4 3 3 2 2 3 2 2 6 5 4 3 3 2 3 3 5 5 7 7 7 9 4
3 2 3 4 8 11 11 10 10 10 11 11 11 9 7 6 5 5 5 5 5 3 4 7 8 6 5 5 4 4 1 3 4 4 1 4 4 4 5 5 5 5 6 6 7 8 7 5 4 6 8 9 10 13 12 11 10 10 10 9 8 7 5 4 3 2 1 1 1 0 1 3 4 2 2 4 3 3 4 5 6 6 6 8 12
1 3 2 2 2 4 8 9 9 9 7 7 8 8 7 8 8 8 8 8 7 8 8 9 6 4 5 4 4 1 1 2 3 1 3 6 6 4 4 5 5 5 6 7 7 6 5 4 4 4 6 7 6 6 8 9 10 10 10 9 8 9 9 6 4 3 2 3 2 3 2 3 3 2 2 3 5 4 3 3 3 4 7 7 5
2 2 1 2 3 3 3 7 7 6 5 6 6 6 7 7 7 8 10 10 6 5 8 8 7 5 5 5 1 1 0 3 4 4 4 3 2 4 4 4 5 6 5 6 6 5 4 6 5 3 2 7 7 6 6 3 3 5 7 7 7 9 8 9 8 5 6 3 3 3 4 2 1 1 1 3 2 3 4 5 4 3 4 6 6
4 2 1 1 1 3 2 1 0 0 1 4 5 6 6 7 7 7 6 6 7 9 9 8 6 6 7 4 3 2 1 3 3 2 4 5 4 1 1 2 3 4 4 4 4 5 5 4 5 4 3 4 5 6 6 6 4 4 3 3 3 1 5 6 5 5 3 2 2 3 1 0 0 1 2 0 2 3 4 5 4 6 6 7 7
5 4 2 1 4 4 4 5 7 6 5 5 5 6 6 5 4 4 5 8 9 10 9 8 7 5 4 6 5 3 1 2 2 4 6 7 6 5 3 3 3 3 2 2 3 4 3 5 5 6 6 5 3 3 5 4 3 3 3 2 2 3 3 2 1 1 1 1 1 1 1 1 1 2 2 1 1 2 3 4 5 5 7 6 6
8 6 6 4 2 3 6 5 5 5 6 5 7 6 6 6 7 5 5 5 5 6 5 7 8 6 5 5 4 3 1 3 2 6 8 8 8 5 4 4 4 4 4 3 3 3 4 4 5 4 3 3 5 6 5 5 3 3 3 3 3 3 3 2 4 5 4 4 3 3 2 1 3 2 2 2 2 3 2 2 3 3 5 6 7
10 8 6 5 3 3 1 5 4 5 5 6 5 6 6 5 4 3 7 5 5 4 4 3 4 7 5 3 4 2 0 2 1 6 7 9 7 5 4 5 5 6 6 5 5 4 2 3 4 5 4 2 1 8 9 9 4 4 3 3 3 4 3 1 3 5 6 6 5 3 2 2 3 4 6 6 3 2 0 3 5 3 5 7 6
6 7 9 8 8 3 4 2 5 4 5 5 5 4 4 3 3 2 6 5 5 4 4 5 3 2 2 3 4 5 3 1 1 3 7 7 7 5 4 6 5 5 5 5 5 5 6 8 6 5 5 3 5 7 7 7 5 5 4 4 3 2 1 0 1 2 3 2 4 0 2 2 2 3 4 4 6 2 1 5 4 2 5 4 7
6 5 4 6 6 4 1 2 3 3 4 4 5 4 4 4 3 4 5 5 4 4 4 6 5 4 3 2 4 2 2 3 3 2 6 7 6 4 6 5 5 3 5 5 5 6 6 7 9 8 7 7 11 11 10 8 6 5 4 4 2 2 1 1 3 3 4 4 3 3 3 4 3 4 4 9 8 6 3 4 4 5 6 6 6
6 5 2 3 5 3 1 1 1 3 3 4 3 1 2 4 4 5 4 5 6 5 5 6 6 4 4 4 4 3 3 2 2 3 5 6 7 5 4 6 4 3 3 5 6 5 5 6 7 10 11 11 11 11 9 9 6 4 3 3 2 2 0 1 1 1 2 2 3 3 4 4 5 4 4 4 5 4 5 4 4 6 6 7 6
5 5 5 6 4 3 0 1 1 2 1 1 2 1 1 1 3 5 5 5 6 6 5 5 6 5 4 3 4 3 2 3 2 4 5 6 6 7 3 5 5 5 4 4 4 6 5 5 4 7 10 10 9 8 8 7 6 4 4 4 2 2 3 2 1 3 1 2 2 3 4 4 4 4 4 4 5 5 5 5 5 5 6 7 7
3 3 3 4 4 2 2 2 1 1 1 2 2 2 1 3 3 4 6 6 6 5 4 5 6 5 3 3 4 3 3 3 3 4 6 7 7 7 6 3 3 6 5 5 5 5 4 4 4 5 8 8 8 8 8 7 7 5 5 5 6 5 1 0 0 0 1 1 2 3 4 4 6 6 5 5 6 6 5 6 6 6 6 7 8
4 3 3 4 4 4 2 1 1 0 2 1 3 3 3 4 4 5 6 5 6 5 4 4 5 5 4 3 3 3 2 2 4 4 6 9 9 10 9 5 6 4 6 5 4 4 3 3 3 5 7 7 7 7 7 7 6 4 5 4 3 2 1 0 0 1 3 3 3 5 5 5 5 6 6 6 6 6 6 6 7 7 7 7 8
5 5 5 5 6 7 6 3 2 2 2 2 3 3 3 4 4 5 5 6 6 6 4 4 5 5 5 3 2 2 2 3 5 6 6 9 10 10 10 9 8 6 6 6 5 5 4 2 2 4 5 6 7 7 7 5 3 4 4 4 3 1 1 1 2 2 2 3 4 5 6 5 6 6 6 6 7 7 7 6 7 7 8 8 8
5 6 6 6 6 7 7 6 8 9 6 4 3 3 3 5 6 4 6 6 6 6 5 5 6 6 6 6 4 2 2 3 3 5 8 9 10 11 11 11 10 10 7 4 4 3 4 4 6 7 7 7 8 7 6 6 6 5 5 4 2 2 3 3 3 3 4 5 5 5 5 6 6 7 7 7 7 6 6 7 6 6 7 7 7
4 4 5 5 6 5 5 6 7 8 8 5 6 6 7 6 7 5 6 7 7 7 7 6 5 5 5 4 5 4 2 3 3 3 4 6 7 10 12 12 12 11 9 7 7 8 9 9 9 8 8 6 5 4 4 3 3 4 5 5 3 3 2 3 3 3 4 5 5 6 7 6 6 7 6 6 6 7 7 7 7 7 6 7 8
5 4 4 4 4 4 5 6 6 6 6 7 7 7 7 6 6 6 6 6 6 6 6 6 5 5 6 5 4 4 3 3 3 3 3 5 5 6 8 8 10 9 7 4 6 5 7 7 7 7 7 7 6 5 5 4 4 5 4 3 2 3 2 1 1 3 4 5 6 6 6 7 6 5 6 6 7 7 6 7 7 7 6 6 7
7 6 5 4 3 3 3 5 6 6 4 2 4 5 5 7 8 8 8 8 7 6 6 6 6 6 6 6 6 5 5 5 4 6 4 6 5 4 5 4 4 6 6 5 5 5 6 5 6 4 5 6 6 5 5 4 4 5 6 5 5 3 2 3 3 2 4 5 6 6 6 5 6 6 6 6 7 8 7 7 7 8 6 6 7
7 7 6 4 4 3 3 2 1 1 1 2 2 2 1 3 4 6 3 4 8 9 8 7 6 6 7 8 7 6 4 6 6 5 6 8 9 7 6 6 5 6 6 9 6 5 5 6 6 6 6 5 6 5 5 6 5 4 4 5 4 4 4 3 5 6 6 6 6 6 7 7 7 7 7 7 7 7 6 7 7 7 7 6 9
5 6 5 5 6 4 3 2 2 3 4 4 3 3 5 6 3 1 2 2 3 5 9 7 8 8 7 4 4 7 8 6 7 8 6 7 7 9 8 8 7 7 7 8 7 7 5 6 5 4 4 6 5 5 4 4 5 5 5 4 4 4 4 4 5 5 5 5 6 6 7 7 7 7 7 8 8 7 7 8 9 8 9 8 9
7 7 6 6 6 5 4 3 3 5 4 2 2 4 2 5 10 10 3 1 6 8 8 7 10 10 10 6 3 6 9 10 11 10 11 11 12 12 10 10 10 10 9 8 6 5 5 6 4 4 3 4 4 3 2 2 2 2 4 4 4 4 4 4 5 5 5 5 6 6 6 7 8 7 8 8 9 8 8 7 7 7 8 9 9
8 7 7 6 5 5 5 6 5 6 5 6 6 5 4 4 5 9 11 8 6 7 9 9 10 10 11 12 9 5 8 12 13 13 13 13 12 11 10 10 9 9 7 10 7 5 5 6 4 3 3 5 1 1 1 1 2 2 3 3 4 3 4 5 5 4 5 6 7 7 7 7 8 8 8 8 9 9 8 8 7 8 8 8 9
8 7 7 7 6 5 5 5 6 6 7 6 5 6 6 6 5 3 8 11 14 12 7 7 11 11 12 11 11 11 11 12 14 14 13 13 12 10 10 9 9 9 9 6 6 5 4 5 5 3 3 3 1 0 1 2 2 3 2 3 5 5 5 5 4 5 5 6 7 7 8 8 8 8 9 9 9 9 9 9 8 8 8 9 9
9 8 7 7 6 6 6 5 5 5 6 8 8 7 6 8 8 8 6 5 8 10 12 11 9 11 10 12 14 14 14 14 13 14 13 13 13 11 9 7 8 6 7 7 6 5 4 5 4 3 2 1 0 0 1 2 2 2 3 4 5 5 6 5 5 6 5 7 7 7 8 8 8 9 9 9 8 9 9 9 8 8 8 8 9
9 10 14 10 7 7 6 6 5 5 4 5 6 7 7 6 6 8 8 8 7 6 4 5 6 6 8 10 13 15 15 14 14 13 12 12 11 12 10 7 6 5 6 5 5 6 5 4 3 2 2 1 1 1 1 2 2 4 4 5 5 5 5 6 6 6 7 7 8 8 8 9 9 9 9 9 8 8 9 9 8 8 9 9 9
10 9 9 11 10 9 7 6 6 6 7 7 7 8 7 7 7 6 5 7 8 8 5 4 4 6 9 10 14 14 14 14 13 11 10 10 12 10 6 5 6 5 5 3 5 4 4 4 3 2 1 0 1 1 1 3 4 5 5 5 6 6 7 7 8 8 8 8 8 10 10 9 9 9 8 8 9 9 9 9 9 9 9 9 8
10 9 9 9 9 9 8 7 7 8 7 7 6 5 5 6 5 6 6 7 7 7 8 7 7 7 7 4 8 12 13 13 12 11 10 9 9 7 5 6 6 6 6 4 4 4 3 2 2 1 0 0 1 1 2 4 4 5 5 5 5 7 7 7 8 8 8 8 9 9 9 9 9 8 8 9 9 8 8 8 9 9 9 10 10
11 10 9 9 7 8 8 8 8 9 8 7 6 7 7 7 7 7 8 8 9 9 8 6 7 10 9 6 4 5 9 10 12 10 8 8 7 6 6 6 6 6 5 3 4 4 3 2 1 1 0 1 1 3 3 4 4 5 5 5 6 6 10 10 9 8 8 8 8 9 9 9 8 8 8 8 9 9 9 9 8 9 9 9 8
10 14 15 14 11 9 8 8 7 7 6 6 6 7 8 7 6 6 7 8 8 8 8 8 8 8 8 7 6 6 8 6 6 6 5 5 5 6 6 6 5 5 4 4 4 3 3 2 1 1 1 1 2 3 3 4 4 5 5 6 6 6 8 7 8 7 7 7 8 8 8 8 8 8 8 8 9 9 9 9 9 8 8 8 8
10 9 11 15 10 10 8 8 8 8 8 8 7 7 7 8 9 9 9 9 9 8 8 8 8 8 8 7 8 6 6 6 6 6 6 6 6 5 6 6 6 6 5 4 3 3 2 1 1 0 1 2 2 3 3 4 5 5 5 5 6 7 8 7 7 7 7 8 8 9 8 9 8 8 8 8 8 8 9 9 9 8 8 8 9
8 9 9 11 11 9 8 7 7 8 7 8 8 7 7 6 8 10 9 9 9 8 8 7 7 7 7 8 9 8 8 7 6 5 6 7 6 6 5 5 5 4 3 3 2 2 2 1 0 1 1 3 3 3 3 4 5 5 6 6 6 7 7 7 7 7 7 8 8 9 9 9 9 8 9 9 9 9 8 8 8 8 8 8 8
6 6 7 7 9 7 6 6 6 8 8 8 9 8 7 7 5 7 10 10 9 9 8 7 6 6 5 9 9 9 7 5 5 6 5 5 5 5 5 3 3 4 5 4 4 2 1 1 1 1 3 3 3 3 4 5 5 5 5 6 7 7 7 7 7 7 7 8 8 9 9 9 9 9 10 9 8 8 8 8 8 8 8 8 7
6 6 7 8 6 6 7 7 8 7 6 7 6 6 8 9 10 8 6 9 10 9 9 8 6 5 5 6 8 8 6 5 5 6 5 5 5 4 4 3 2 2 2 2 1 1 1 0 2 2 2 2 2 3 4 5 5 5 5 6 6 7 7 7 7 7 7 8 9 10 10 9 9 8 8 8 8 8 8 8 8 7 7 7 7
9 9 8 7 6 6 6 6 7 7 7 8 10 7 7 10 8 8 9 8 8 8 8 7 7 6 5 4 6 6 5 5 6 5 6 5 5 5 3 2 2 2 1 1 2 1 1 0 2 3 2 2 3 4 4 3 4 4 5 6 6 7 7 7 7 8 8 8 8 7 9 9 9 8 8 8 8 8 8 8 8 7 7 7 7
9 9 8 8 8 8 7 7 8 8 9 7 7 8 5 7 9 8 8 8 8 7 7 6 6 6 6 5 5 6 6 6 6 5 5 5 5 3 3 2 2 2 2 2 1 1 1 0 1 3 4 4 4 5 5 5 3 3 3 5 5 6 7 7 7 8 8 8 8 9 8 8 9 8 8 8 8 8 8 8 7 8 8 7 7
9 9 9 9 9 9 8 8 8 8 8 8 9 9 8 8 8 9 8 8 7 7 6 5 5 5 5 5 5 6 6 6 5 5 6 5 5 3 2 2 1 1 1 1 0 1 1 1 2 2 3 4 5 5 4 4 4 3 3 3 5 5 6 7 7 8 8 7 8 9 10 9 8 8 10 9 8 8 8 8 7 7 7 7 7
10 9 9 9 9 9 9 8 8 8 8 8 7 8 8 8 8 8 7 7 7 6 6 5 5 5 5 5 6 5 5 6 6 5 5 4 3 4 3 2 1 2 2 1 1 1 2 2 1 2 3 3 3 4 5 5 4 4 4 4 4 6 5 7 8 7 7 7 7 8 9 8 8 8 9 9 8 8 8 7 7 8 7 7 6
9 8 8 8 9 9 8 8 9 9 8 8 8 8 8 7 7 7 6 6 7 6 6 6 6 6 6 5 5 5 6 6 5 5 5 4 3 3 2 2 2 2 1 2 3 3 4 3 3 3 3 3 4 4 5 5 5 5 5 5 5 7 10 11 8 7 6 7 7 7 7 8 8 8 8 9 8 8 8 7 7 7 7 6 6
8 8 8 9 8 8 8 8 7 8 8 8 8 8 7 7 7 7 7 7 7 6 6 7 6 6 6 6 6 6 6 6 6 5 4 4 3 2 2 2 3 2 3 4 4 4 4 4 3 4 3 4 4 5 4 5 6 6 7 6 9 15 16 15 10 7 9 7 6 6 6 7 8 8 8 8 8 8 7 7 7 7 6 6 6
8 9 9 9 9 8 8 8 8 8 8 8 8 8 7 7 7 7 7 7 7 7 6 6 6 6 6 6 6 6 6 6 5 5 4 3 2 1 2 3 3 3 4 4 5 4 3 3 3 4 4 4 5 4 4 4 5 6 7 8 14 16 15 17 15 14 10 6 7 5 6 6 7 7 7 7 8 9 8 8 8 7 6 6 6
9 9 9 9 8 8 8 8 8 8 8 8 8 7 8 8 7 7 7 7 7 7 6 6 6 6 6 6 5 6 6 5 5 4 3 3 2 2 3 3 4 4 4 5 5 4 4 4 5 5 4 5 5 5 5 5 6 7 10 13 13 14 15 15 11 13 15 10 5 5 5 7 7 8 7 7 7 8 9 9 8 7 6 6 6
Wind_Direction
174 172 173 180 204 198 184 188 209 212 215 190 191 198 176 171 184 192 162 195 177 187 197 203 198 192 172 170 165 166 165 172 177 159 156 159 169 165 166 163 153 162 152 159 153 149 145 147 170 164 150 103 92 63 54 60 76 73 79 92 81 61 90 109 33 306 303 259 262 325 325 357 358 12 9 1 0 357 9 16 10 13 11 5 359
183 177 185 191 194 194 191 188 193 197 208 203 193 202 189 173 181 165 183 197 181 187 194 195 197 196 188 191 186 181 178 178 183 173 169 170 177 169 170 170 160 163 158 163 173 171 153 153 178 183 172 130 126 90 106 74 72 67 47 73 65 47 21 67 36 7 321 326 352 328 353 5 2 8 10 360 356 2 14 8 14 17 13 5 2
184 183 188 197 202 201 195 192 165 173 206 213 187 135 328 258 175 175 188 191 193 187 188 189 191 192 198 202 195 197 191 188 188 182 179 176 177 197 190 177 165 163 172 178 178 164 153 167 189 182 161 133 112 121 118 97 97 95 86 81 88 64 38 68 66 12 345 322 339 355 6 350 14 356 1 356 349 3 14 13 6 11 16 8 3
182 193 200 206 207 198 192 116 95 104 152 187 154 128 129 119 42 67 88 56 36 17 12 321 208 193 200 207 207 203 199 193 189 198 187 182 182 188 197 206 196 182 179 181 176 171 177 174 202 180 171 155 147 112 99 107 110 115 105 101 109 113 100 81 83 90 15 350 333 10 351 356 345 354 359 357 5 5 11 354 9 21 12 9 2
186 196 204 209 199 162 141 141 155 166 168 152 128 103 86 84 122 115 96 96 112 153 165 276 268 225 208 209 212 212 209 200 199 204 207 194 190 185 191 196 204 208 201 185 181 179 179 185 190 169 164 169 159 133 141 122 133 121 124 135 122 130 94 87 89 79 59 13 323 314 346 345 340 341 5 1 354 5 10 14 5 4 5 6 360
206 208 224 242 306 124 142 163 165 172 163 144 128 118 111 101 98 95 100 89 76 38 36 30 5 334 291 244 220 216 211 209 208 201 190 185 194 195 198 203 206 208 216 211 189 185 183 194 182 170 168 173 185 170 157 144 145 132 133 144 132 114 104 97 95 81 78 50 340 341 351 359 358 12 4 360 352 353 357 1 8 15 6 358 1
156 126 58 71 86 130 166 170 165 149 123 133 133 129 128 136 130 124 124 101 89 91 74 63 42 341 316 301 263 235 227 225 218 203 200 192 192 195 201 215 229 227 220 217 214 197 193 189 181 176 180 186 173 172 164 154 148 152 149 143 137 106 95 88 78 71 69 43 9 49 337 334 11 346 352 353 343 27 0 351 352 3 14 4 345
121 123 123 108 97 81 62 46 60 65 97 107 96 90 97 108 111 116 127 136 126 111 106 112 161 196 243 258 267 271 260 250 229 216 211 208 198 205 202 211 228 247 248 239 231 221 208 198 188 186 186 188 178 173 160 163 152 141 170 138 140 99 90 83 60 63 53 45 33 336 346 321 342 305 301 348 6 19 34 7 341 339 344 351 341
121 123 118 113 116 121 118 104 111 125 124 106 106 109 109 117 128 130 108 124 156 162 178 181 205 224 234 239 247 257 231 226 223 217 235 258 233 227 215 213 215 222 225 226 224 230 229 213 201 194 197 189 184 171 175 160 149 150 186 147 123 108 97 73 90 71 57 51 4 350 356 358 349 355 355 8 16 337 325 3 327 325 325 332 335
37 78 94 92 96 93 106 119 126 131 126 124 106 135 156 176 172 166 164 172 181 173 184 198 210 225 232 238 245 266 264 237 9 336 323 302 277 267 267 249 237 236 237 237 234 227 227 218 214 205 198 188 180 176 169 166 163 157 166 162 137 119 115 108 97 110 89 37 340 2 354 338 331 345 334 304 304 319 342 351 342 324 333 323 305
178 259 214 194 168 149 144 153 156 156 151 147 176 194 160 137 119 116 115 143 162 177 230 222 227 243 251 255 265 271 345 77 77 104 219 241 231 239 239 244 235 233 230 227 230 230 233 229 223 208 199 186 181 174 165 165 160 156 160 165 158 142 136 129 164 164 153 203 195 128 251 290 299 282 286 294 341 350 332 336 329 341 355 353 329
132 182 191 29 342 145 148 159 170 167 159 166 176 178 148 147 151 148 153 176 200 188 212 223 212 221 248 246 236 266 73 13 6 268 218 226 218 225 236 240 238 234 231 229 232 227 224 210 209 198 191 180 157 155 156 158 159 157 159 159 159 154 154 152 157 174 177 185 230 240 198 251 260 313 309 6 333 339 337 338 342 344 332 329 305
43 58 53 118 250 243 192 175 177 175 174 170 166 157 157 157 161 158 176 193 189 178 217 226 229 221 222 233 225 40 349 312 309 291 269 288 272 227 240 239 244 246 242 238 234 214 177 184 187 155 120 132 126 130 124 154 151 141 149 161 165 165 166 166 166 169 170 153 193 239 206 207 261 278 29 346 335 344 342 345 338 317 292 295 291
98 95 28 344 273 246 266 315 20 144 195 161 158 160 160 177 182 183 173 167 171 195 213 217 221 210 208 183 144 196 228 306 306 2 40 40 33 38 239 255 253 258 254 242 223 195 191 168 141 126 93 120 143 145 160 162 138 121 127 153 168 72 43 40 25 34 64 161 168 215 310 127 332 261 310 111 24 337 331 313 312 311 305 290 289
26 26 77 137 157 165 171 179 180 173 161 144 142 150 160 158 165 169 164 176 180 191 189 190 198 192 167 157 158 152 211 266 191 96 74 65 58 43 23 31 39 42 49 113 128 137 129 131 137 139 148 155 161 158 137 122 125 133 146 126 57 61 68 42 55 125 123 110 124 166 227 223 216 233 240 207 212 238 240 259 277 278 283 290 282
5 13 5 8 20 129 140 139 136 132 129 120 116 124 136 145 143 144 124 119 125 135 139 141 146 144 147 140 122 111 31 22 66 92 83 73 68 57 51 46 41 36 30 35 71 108 132 135 137 136 128 136 135 154 150 119 157 150 124 92 84 81 74 37 81 102 115 129 146 161 186 210 213 231 252 253 252 256 276 302 310 292 311 318 309
2 2 1 342 345 342 19 110 102 106 100 95 104 122 117 109 122 128 93 98 102 108 144 130 144 136 132 114 111 116 36 354 355 108 109 105 84 73 73 62 49 49 37 32 31 35 65 115 114 121 103 103 137 151 147 141 143 132 130 110 111 106 85 41 94 98 113 123 131 131 227 256 271 271 269 271 266 266 140 2 315 311 337 314 306
354 352 356 343 331 336 344 348 115 112 107 112 121 122 111 98 103 107 106 102 89 121 121 90 62 60 109 149 147 151 191 339 317 141 118 116 117 110 100 91 70 65 58 40 33 34 29 63 90 97 94 69 68 101 128 116 109 117 112 108 82 56 35 25 147 92 82 108 123 172 223 259 282 297 293 312 320 314 61 305 274 328 298 283 294
332 335 336 334 323 310 316 355 326 135 129 157 147 144 149 133 122 84 102 99 104 93 86 88 65 46 49 71 41 45 83 38 25 73 113 115 109 109 105 98 89 65 84 67 48 50 45 43 68 85 92 98 92 91 92 93 96 98 110 102 93 48 314 25 33 15 6 10 356 3 332 337 340 338 329 329 322 316 279 257 276 280 279 282 284
296 307 310 316 314 308 360 302 322 295 198 177 189 157 136 122 113 101 82 99 103 88 91 93 93 69 58 61 58 69 92 45 34 75 104 103 110 111 107 109 115 99 76 95 83 54 65 73 73 88 91 87 85 83 86 99 108 118 102 95 113 60 43 61 43 62 356 4 327 339 320 318 326 325 318 310 308 296 290 275 259 250 260 272 271
285 296 328 330 319 300 98 180 187 203 211 179 171 130 85 65 110 111 102 85 90 83 88 97 94 82 73 78 87 70 101 97 38 65 87 90 96 102 89 111 127 114 102 79 92 102 87 84 83 94 98 97 98 97 95 87 87 96 86 95 97 101 112 53 17 47 8 331 323 313 304 310 308 304 292 294 286 288 284 275 261 246 246 261 270
274 311 317 294 280 281 302 296 174 154 119 92 73 44 26 102 98 100 111 114 108 105 109 108 103 91 69 68 86 80 65 88 90 59 74 76 70 90 98 98 120 121 91 88 90 87 108 109 98 90 92 92 86 84 79 76 73 83 77 84 88 71 64 101 192 345 325 291 293 301 301 301 298 295 294 290 287 284 278 274 270 262 245 235 246
287 265 290 307 299 304 323 266 291 14 147 173 116 121 95 84 85 110 109 104 109 116 119 117 109 99 74 56 66 83 76 71 77 86 79 85 82 78 89 96 81 89 116 115 110 112 82 75 80 72 69 72 75 76 70 62 55 53 55 40 57 112 130 121 183 354 343 329 319 305 298 296 302 300 296 290 278 273 271 267 269 266 262 255 246
284 283 273 260 265 273 276 239 227 266 274 185 142 131 108 108 110 118 122 121 120 116 125 123 121 132 132 115 92 78 63 77 66 85 94 91 86 87 87 87 90 90 95 113 112 112 99 77 72 79 56 51 49 46 45 47 42 25 19 13 360 32 89 39 5 360 325 319 316 309 305 294 292 291 283 277 276 271 271 268 266 261 260 263 260
282 272 267 266 259 252 241 245 265 264 229 194 183 149 145 149 127 152 128 130 135 143 165 162 163 163 152 154 162 123 72 76 77 92 103 100 98 98 97 95 93 94 89 97 110 115 117 90 67 52 42 42 45 47 45 40 30 16 7 359 24 53 32 15 352 353 338 317 302 292 286 281 274 275 280 281 282 286 283 278 268 267 267 267 265
295 276 259 239 229 228 238 243 244 242 250 212 197 189 172 164 145 152 129 138 146 144 158 163 160 160 160 151 151 153 110 99 100 105 104 101 96 97 98 96 92 92 98 97 95 80 69 62 60 57 57 61 65 63 60 42 52 55 52 50 44 35 30 14 351 347 313 298 295 291 283 284 282 277 280 287 290 283 283 287 293 290 290 288 290
267 274 273 271 264 221 204 221 239 250 251 231 215 193 169 152 146 151 150 146 147 146 149 156 153 153 146 144 143 147 150 150 144 131 119 106 106 103 98 96 99 94 88 87 78 78 75 79 86 88 93 81 81 83 69 44 44 22 20 21 26 16 18 16 321 294 295 292 284 278 277 274 280 296 293 295 293 290 281 286 287 284 284 279 279
262 259 258 259 264 264 241 236 226 219 205 281 245 194 184 163 155 162 164 166 152 160 156 165 175 173 161 157 157 158 173 178 180 159 154 134 125 115 111 112 109 116 108 104 101 96 98 90 74 57 57 47 37 32 25 32 43 21 6 3 356 347 330 300 288 268 267 265 271 279 285 293 298 291 294 295 293 291 287 280 281 284 280 287 284
258 258 254 238 251 245 224 201 172 232 190 89 26 352 263 244 209 192 212 169 165 164 179 188 190 183 156 160 156 168 176 203 213 188 169 159 146 136 128 123 116 96 123 128 106 80 71 62 55 48 42 51 36 28 19 17 8 8 8 354 346 335 326 339 323 305 297 301 300 303 302 304 297 294 293 290 285 287 287 285 279 280 283 270 274
273 266 262 253 250 210 171 136 131 146 169 164 136 73 42 60 18 180 217 176 160 154 156 175 185 162 153 163 160 163 195 198 163 159 151 130 118 115 117 119 114 117 109 102 101 87 77 84 67 74 56 57 46 34 19 17 12 358 342 328 324 319 309 301 296 293 299 302 301 305 301 299 297 297 294 290 289 282 283 282 285 282 282 278 278
273 266 265 263 257 247 228 176 147 131 141 157 143 131 108 24 34 33 26 159 162 136 138 124 145 162 154 141 81 98 120 127 129 127 124 120 115 111 110 111 115 120 124 100 55 88 98 89 73 60 66 72 60 44 32 24 350 322 315 311 299 298 297 300 294 301 307 307 304 298 298 298 298 298 295 294 292 291 287 279 276 274 270 273 274
266 263 260 256 251 247 249 225 165 160 176 176 191 167 137 96 29 25 30 52 84 134 145 139 146 148 141 135 127 68 111 124 128 129 126 120 116 114 110 106 107 109 110 104 95 85 96 100 83 71 75 70 53 58 44 340 310 314 309 320 308 291 298 305 302 308 305 310 313 310 305 301 298 296 293 291 290 288 287 286 280 278 275 271 269
251 260 263 260 255 252 241 228 211 175 165 170 186 178 156 134 106 39 18 44 59 59 73 127 140 142 139 137 138 143 147 141 132 127 124 122 118 111 102 93 102 118 100 76 110 105 94 96 101 96 92 99 146 165 301 316 316 306 301 301 312 312 310 301 309 309 300 298 302 299 300 298 296 295 292 290 289 287 287 283 280 276 274 275 273
235 239 245 248 252 252 241 217 200 204 187 178 183 186 185 174 167 157 131 93 53 47 47 59 96 114 114 121 121 123 128 128 126 125 124 125 124 119 102 85 74 66 104 122 105 119 112 101 99 108 123 150 159 352 343 327 309 309 315 313 304 301 301 300 308 304 305 307 305 298 299 296 295 294 291 288 282 281 281 279 279 279 277 273 276
231 228 227 232 237 237 231 221 202 186 185 190 184 180 183 185 172 161 157 147 131 111 96 49 47 85 119 118 124 127 128 127 127 128 128 134 133 126 111 91 83 72 61 77 101 114 114 118 121 138 141 89 315 3 318 307 328 336 325 312 305 299 300 312 314 315 312 311 306 303 299 297 292 287 284 286 287 285 282 282 279 274 275 276 273
232 229 226 220 221 223 219 214 207 194 189 196 195 187 174 166 177 173 136 122 126 124 92 69 75 69 97 119 128 127 125 124 123 121 128 131 139 128 95 101 102 105 104 92 105 115 122 139 136 147 166 187 323 328 303 346 325 312 300 301 308 317 324 324 320 316 310 306 301 298 296 292 288 284 283 280 280 280 279 279 278 276 272 272 272
225 226 225 220 216 214 212 205 197 198 198 191 175 160 165 164 154 140 133 132 125 121 123 125 106 80 64 74 112 120 122 119 115 109 103 110 118 107 120 130 130 122 114 125 126 135 122 159 158 160 195 86 287 295 348 332 306 305 304 306 314 323 321 314 309 308 307 303 298 295 291 289 288 287 287 287 285 282 280 279 278 276 274 272 273
220 218 217 209 209 208 205 201 197 193 194 180 174 167 158 162 161 149 140 138 138 134 136 141 137 136 137 145 166 134 120 110 99 84 83 88 88 100 113 123 125 127 144 156 158 141 143 176 198 168 229 234 352 350 327 305 307 306 308 319 324 316 313 310 305 301 296 293 293 293 292 291 291 293 291 287 286 288 285 283 282 281 279 273 269
222 213 206 197 198 200 201 192 182 176 175 169 166 161 160 155 147 137 134 134 135 135 139 141 141 140 143 147 139 154 126 116 114 120 108 103 106 117 121 121 127 135 148 156 158 142 153 168 213 228 236 339 345 304 292 301 306 310 320 327 320 313 311 306 304 301 300 297 298 296 296 295 295 295 292 290 287 287 286 285 281 279 279 280 275
214 207 203 197 195 194 190 186 177 170 165 161 167 167 165 160 152 147 142 139 140 145 146 145 147 149 151 151 150 153 133 136 137 136 128 127 130 131 128 133 142 150 153 154 160 161 164 215 221 235 314 323 286 294 306 304 312 319 325 317 312 310 306 304 300 304 303 305 301 299 299 299 299 297 293 289 287 288 289 288 287 283 280 278 278
212 199 185 188 187 183 178 170 169 166 164 163 158 156 156 164 157 146 143 142 141 141 144 143 142 144 152 158 158 150 141 147 142 138 140 140 141 136 140 144 143 142 145 148 165 177 195 209 257 253 280 279 289 309 312 327 335 336 323 316 312 307 305 303 302 302 304 304 302 302 303 303 302 302 299 297 295 293 289 287 286 285 282 279 277
197 171 159 164 171 152 147 146 154 154 156 154 157 158 151 132 121 142 143 141 138 136 130 124 127 128 135 138 140 131 120 121 123 122 123 130 135 140 147 155 152 148 156 168 170 171 199 240 272 272 290 313 324 326 345 354 346 329 323 321 317 312 310 308 308 306 306 304 303 303 305 305 302 300 297 297 297 295 293 291 290 288 286 283 279
63 103 117 132 130 128 129 135 135 133 133 131 126 141 142 141 145 137 126 130 135 136 131 129 126 121 132 137 125 116 108 120 123 128 129 129 128 133 143 157 155 164 186 183 171 142 126 257 290 281 296 310 314 355 8 342 332 327 322 317 314 310 308 308 310 310 310 307 306 306 306 305 303 302 301 301 299 299 296 298 298 294 290 286 286
70 72 86 102 106 108 110 116 116 121 127 132 130 138 150 137 124 125 131 129 127 127 126 128 134 132 129 118 107 103 114 116 121 126 127 124 124 123 123 101 91 94 88 56 46 92 120 271 299 312 310 321 347 11 8 345 328 322 321 315 312 309 307 308 309 310 311 308 302 297 304 305 305 305 305 303 305 303 304 303 303 303 302 301 297
67 76 84 89 87 91 90 97 103 109 109 105 104 97 97 109 119 120 119 118 112 113 117 126 130 128 127 128 121 118 122 121 123 121 120 122 117 120 118 98 93 98 73 46 33 102 133 210 332 345 350 340 357 5 354 332 328 319 313 311 305 306 305 304 304 305 304 299 297 299 303 306 308 308 307 307 305 305 303 307 309 311 314 313 312
59 69 75 81 83 86 89 93 99 104 108 111 112 110 111 107 108 111 108 105 107 116 117 120 119 120 120 113 110 114 121 118 115 110 109 106 108 114 107 115 109 100 75 46 351 71 59 52 3 353 350 342 351 350 343 331 332 332 321 307 294 287 292 299 302 303 300 296 297 301 304 306 309 309 309 309 308 306 304 307 310 311 309 309 308
52 61 63 71 73 77 75 80 83 87 88 87 91 94 91 87 88 88 91 104 112 112 109 114 111 109 107 113 119 117 118 113 114 108 108 107 101 89 74 74 78 53 20 348 354 28 36 19 349 349 347 351 358 350 340 338 336 332 327 318 306 307 307 310 306 296 293 294 296 296 303 307 311 312 312 312 310 311 311 310 314 316 316 314 316
57 55 57 65 71 74 74 75 78 77 77 78 78 79 83 85 88 93 100 104 101 102 100 93 91 95 97 93 93 98 98 99 97 99 96 92 91 88 79 68 56 36 16 23 13 23 30 5 347 344 357 15 17 360 349 340 341 334 331 328 322 322 317 316 307 305 298 301 295 297 302 307 310 312 314 315 315 316 315 318 320 321 321 322 325
50 54 59 57 59 60 68 70 72 76 82 85 84 82 84 87 89 91 92 91 91 90 95 98 94 91 91 92 95 95 96 97 97 94 90 86 75 62 65 65 59 44 40 24 13 18 5 356 349 350 12 33 31 6 353 347 343 339 334 328 329 329 328 329 326 316 317 310 304 304 306 310 314 316 318 319 320 319 316 316 319 322 323 328 328
51 51 56 55 58 59 62 67 70 76 75 81 84 85 81 85 82 84 87 88 87 84 83 84 88 89 98 98 99 98 98 99 99 97 92 86 80 68 50 43 39 31 33 24 15 1 356 360 1 9 20 37 19 8 355 353 345 336 333 328 327 330 331 331 329 332 336 322 311 304 310 313 316 316 319 323 324 325 327 328 327 327 330 334 337
52 55 57 57 59 59 61 64 64 65 69 75 76 81 80 77 78 77 79 81 85 83 83 81 84 82 79 83 90 94 93 92 87 89 86 80 59 55 50 32 18 11 20 27 18 12 15 17 15 17 20 20 11 4 2 350 342 336 327 323 327 333 335 337 333 328 328 332 315 314 321 324 325 325 326 328 331 331 331 328 328 332 334 335 334